Regional Weather Roundup
Issued by NWS

Current Version |  Previous Version |  Text Only |  Print | Product List |  Glossary On
Versions: 1 2 3 4 5 6 7 8 9 10 11 12 13 14 15 16 17 18 19 20 21 22 23 24 25 26 27 28 29 30 31 32 33 34 35 36 37 38 39 40 41 42 43 44 45 46 47 48 49 50
670
ASUS44 KMEG 160200
RWRTN
TENNESSEE HOURLY STATE WEATHER ROUNDUP
NATIONAL WEATHER SERVICE MEMPHIS TN
900 PM CDT SAT JUN 15 2024

TNZ002-004-019-021-049-052-054-088>092-160300-
WEST TENNESSEE

CITY           SKY/WX    TMP DP  RH WIND       PRES   REMARKS
MEMPHIS INTL   PTCLDY    86  68  54 CALM      29.92S
NWS MEMPHIS      N/A     82 N/A N/A MISG        N/A
JACKSON        CLEAR     83  74  74 E5        29.94S
DYERSBURG      PTCLDY    85  70  60 E3        29.94S
$$

TNZ008-025-027-028-033-062-065-066-160300-
NORTH MIDDLE TENNESSEE

CITY           SKY/WX    TMP DP  RH WIND       PRES   REMARKS
NASHVILLE      PTCLDY    85  64  49 E7        29.99R
CLARKSVILLE    CLEAR     80  63  55 E6        29.97R
SMYRNA         CLEAR     83  67  58 NE5       29.99R
CROSSVILLE     PTCLDY    77  66  68 NE5       30.09R
$$

TNZ061-075-076-078-094-096-097-160300-
SOUTH MIDDLE TENNESSEE

CITY           SKY/WX    TMP DP  RH WIND       PRES   REMARKS
$$

TNZ017-018-042-046-047-160300-
NORTHEAST TENNESSEE

CITY           SKY/WX    TMP DP  RH WIND       PRES   REMARKS
TRI CITIES     PTCLDY    74  59  59 CALM      30.08R
$$

TNZ012-013-036-069-073-074-160300-
CENTRAL EAST TENNESSEE

CITY           SKY/WX    TMP DP  RH WIND       PRES   REMARKS
KNOXVILLE      CLEAR     80  63  55 NE6       30.01R
OAK RIDGE      CLEAR     81  66  60 VRB3      30.04R
$$

TNZ083-085-099-160300-
SOUTHEAST TENNESSEE

CITY           SKY/WX    TMP DP  RH WIND       PRES   REMARKS
CHATTANOOGA    PTCLDY    86  68  54 NE5       29.99R
$$

SKY/WX REPORTED AS FAIR MEANS FEW OR NO CLOUDS BELOW
12 THOUSAND FEET.